Flag for Monaco Weather past 2 weeks in Monaco, Monaco

Now
46 °F

Partly sunny.


Feels Like: 39 °F
Forecast: 37 / 53 °F
Wind: 17 mph from Northwest

Location: Nice Airport

Current Time: Dec 25, 2014 at 10:28:36 AM

Latest Report: Dec 25, 2014 at 10:00 AM


Visibility: N/A

Pressure: 30.18 "Hg

Humidity: 57%

Dew point: 32 °F

Location of MonacoLocation

Historic Weather in Monaco — Graph

°F

Monaco temperature yesterday

Maximum temperature yesterday: 59 °F (at 2:00 PM)
Minimum temperature yesterday: 41 °F (at 7:00 AM)
Average temperature yesterday: 48 °F

Past Weeks' High & Low Weather Summary

 TemperatureHumidityPressure
High63 °F (Dec 15, 11:30 AM)88% (Dec 14, 6:30 AM)30.45 "Hg (Dec 14, 6:30 AM)
Low41 °F (Dec 24, 7:00 AM)35% (Dec 10, 11:30 AM)29.77 "Hg (Dec 16, 2:00 PM)
Average51 °F66%30.14 "Hg
* Reported Dec 10 9:00 AM — Dec 25 9:30 AM, Monaco, Weather by CustomWeather, © 2014

Note: Actual official high and low records may vary slightly from our data, if they occured in-between our weather recording intervals... More about our weather records

Advertising

Monaco weather history for previous 24 hours

 ConditionsComfort  
Time TempWeatherWind HumidityBarometerVisibility
9:30 AM
Dec 25
43 °FScattered clouds.17 mph61%30.18 "HgN/A
8:30 AM43 °FPartly sunny.15 mph66%30.18 "HgN/A
8:00 AM43 °FPassing clouds.17 mph66%30.18 "HgN/A
7:30 AM43 °FPassing clouds.16 mph66%30.18 "HgN/A
7:19 AM43 °FPassing clouds.16 mph66%30.18 "HgN/A
6:39 AM43 °FPassing clouds.15 mph66%30.18 "HgN/A
6:30 AM43 °FPassing clouds.15 mph66%30.18 "HgN/A
6:00 AM43 °FPassing clouds.14 mph66%30.18 "HgN/A
5:30 AM43 °FPassing clouds.14 mph71%30.18 "HgN/A
5:00 AM43 °FPassing clouds.13 mph71%30.18 "HgN/A
4:30 AM43 °FPassing clouds.15 mph71%30.18 "HgN/A
4:00 AM43 °FPassing clouds.15 mph71%30.18 "HgN/A
3:30 AM43 °FClear.12 mph71%30.21 "Hg10 mi
3:00 AM43 °FClear.13 mph71%30.21 "Hg10 mi
2:30 AM43 °FClear.12 mph76%30.21 "Hg10 mi
2:00 AM45 °FPassing clouds.13 mph71%30.21 "HgN/A
1:30 AM45 °FPassing clouds.13 mph71%30.21 "HgN/A
1:00 AM45 °FPassing clouds.13 mph71%30.21 "HgN/A
12:30 AM45 °FPassing clouds.12 mph71%30.21 "HgN/A
12:00 AM45 °FPassing clouds.12 mph71%30.21 "HgN/A
11:30 PM
Dec 24
45 °FPassing clouds.9 mph71%30.21 "HgN/A
11:00 PM45 °FPassing clouds.8 mph71%30.21 "HgN/A
10:30 PM45 °FPassing clouds.10 mph76%30.24 "HgN/A
10:00 PM45 °FPassing clouds.9 mph76%30.24 "HgN/A
9:30 PM46 °FPassing clouds.9 mph71%30.24 "HgN/A
8:30 PM46 °FPassing clouds.10 mph71%30.24 "HgN/A
8:00 PM48 °FPassing clouds.10 mph71%30.24 "HgN/A
7:30 PM48 °FPassing clouds.10 mph71%30.24 "HgN/A
7:00 PM48 °FPassing clouds.10 mph71%30.24 "HgN/A
6:30 PM48 °FPassing clouds.12 mph71%30.24 "HgN/A
6:00 PM50 °FPassing clouds.9 mph67%30.24 "HgN/A
5:30 PM55 °FPassing clouds.9 mph63%30.24 "HgN/A
5:05 PM57 °FPassing clouds.12 mph59%30.24 "HgN/A
4:30 PM57 °FPassing clouds.13 mph63%30.24 "HgN/A
4:00 PM59 °FPassing clouds.15 mph59%30.24 "HgN/A
3:30 PM59 °FPassing clouds.17 mph63%30.24 "HgN/A
3:00 PM59 °FPassing clouds.17 mph59%30.24 "HgN/A
2:30 PM59 °FPassing clouds.3 mph59%30.27 "HgN/A
2:00 PM59 °FPassing clouds.1 mph55%30.27 "HgN/A
1:24 PM57 °FPassing clouds.2 mph55%30.30 "HgN/A
1:00 PM55 °FPassing clouds.2 mph59%30.30 "HgN/A
12:30 PM54 °FPassing clouds.6 mph58%30.33 "HgN/A
12:04 PM52 °FPassing clouds.7 mph62%30.33 "HgN/A
11:30 AM50 °FPassing clouds.12 mph62%30.33 "HgN/A
11:00 AM48 °FPassing clouds.12 mph62%30.33 "HgN/A
10:30 AM46 °FPassing clouds.12 mph66%30.36 "HgN/A
10:00 AM45 °FScattered clouds.14 mph71%30.33 "HgN/A
Weather by CustomWeather, © 2014

See weather overviewHow to use our weather pages